Probability
0 0 0 1 0 0 0 0 0 0 0 0 0 0 0 0 0 0 0 0 0 0 0 0 0 0 0 0 0 0 0 0 0 0 0 0 0 0 0 0 0 0 0
0 0 1 1 1 0 0 0 0 0 0 0 0 0 0 0 0 0 0 0 0 0 0 0 0 0 0 0 0 0 0 0 0 0 0 0 0 0 0 0 0 0 0
0 0 1 2 2 1 0 0 0 0 0 0 0 0 0 0 0 0 0 0 0 0 0 0 0 0 0 0 0 0 0 0 0 0 0 0 0 0 0 0 0 0 0
0 0 0 1 1 1 0 0 0 0 0 0 0 0 0 0 0 0 0 0 0 0 0 0 0 0 0 0 0 0 0 0 0 0 0 0 0 0 0 0 0 0 0
0 0 0 0 0 0 1 2 1 0 0 0 0 0 0 0 0 0 0 0 0 0 0 0 0 0 0 0 0 0 0 0 0 0 0 0 0 0 0 0 0 0 0
0 0 0 0 0 0 2 3 2 1 1 0 0 0 0 0 0 0 0 0 0 0 0 0 0 0 0 0 0 0 0 0 0 0 0 0 0 0 0 0 0 0 0
0 0 0 0 0 0 1 2 2 2 1 1 1 0 0 0 0 0 0 0 0 0 0 0 0 0 0 0 0 0 0 0 0 0 0 0 0 0 0 0 0 0 0
0 0 0 0 0 0 1 2 2 1 1 1 1 0 0 0 0 0 0 0 0 0 0 0 0 0 0 0 0 0 0 0 0 0 0 0 0 0 0 0 0 0 0
0 0 0 0 0 0 1 2 2 1 0 1 1 0 0 0 0 0 0 0 0 0 0 0 0 0 0 0 0 0 0 0 0 0 0 0 0 0 0 0 0 0 0
0 0 0 0 0 0 1 2 2 1 0 0 0 0 0 0 0 0 0 0 0 0 0 0 0 0 0 0 0 0 0 0 0 0 0 0 0 0 0 0 0 0 0
0 0 0 0 0 0 0 1 1 1 0 0 0 0 0 0 0 0 0 0 0 0 0 0 0 0 0 0 0 0 0 0 0 0 0 0 0 0 0 0 0 0 0
0 0 0 0 0 0 0 0 0 0 0 0 0 0 0 0 0 0 0 0 0 0 0 0 0 0 0 0 0 0 0 0 0 0 0 0 0 0 0 0 0 0 0
0 0 0 0 0 0 0 0 0 0 0 0 0 0 0 0 0 0 0 0 0 0 0 0 0 0 0 0 0 0 0 0 0 0 0 0 0 0 0 0 0 0 0
0 0 0 0 0 0 0 0 0 0 0 0 0 0 0 0 0 0 0 0 0 0 0 0 0 0 0 0 0 0 0 0 0 0 0 0 0 0 0 0 0 0 0
0 0 0 0 0 0 0 0 0 0 0 0 0 0 0 0 0 0 0 0 0 0 0 0 0 0 0 0 0 0 0 0 0 0 0 0 0 0 0 0 0 0 0
0 0 0 0 0 0 0 0 0 0 0 0 0 0 0 0 0 0 0 0 0 0 0 0 0 0 0 0 0 0 0 0 0 0 0 0 0 0 0 0 0 0 0
0 0 0 0 0 0 0 0 0 0 0 0 0 0 0 0 0 0 0 0 0 0 0 0 0 0 0 0 0 0 0 0 0 0 0 0 0 0 0 0 0 0 0
0 0 0 0 0 0 0 0 0 0 0 0 0 0 0 0 0 0 0 0 0 0 0 0 0 0 0 0 0 0 0 0 0 0 0 0 0 0 0 0 0 0 0
0 0 0 0 0 0 0 0 0 0 0 0 0 0 0 0 0 0 0 0 0 0 0 0 0 0 0 0 0 0 0 0 0 0 0 0 0 0 0 0 0 0 0
0 0 0 0 0 0 0 0 0 0 0 0 0 0 0 0 0 0 0 0 0 0 0 0 0 0 0 0 0 0 0 0 0 0 0 0 0 0 0 0 0 0 0
0 0 0 0 0 0 0 0 0 0 0 0 0 0 0 0 0 0 0 0 0 0 0 0 0 0 0 0 0 0 0 0 0 0 0 0 0 0 0 0 0 0 0
0 0 0 0 0 0 0 0 0 0 0 0 0 0 0 0 0 0 0 0 0 0 0 0 0 0 0 0 0 0 0 0 0 0 0 0 0 0 0 0 0 0 0
0 0 0 0 0 0 0 0 0 0 0 0 0 0 0 0 0 0 0 0 0 0 0 0 0 0 0 0 0 0 0 0 0 0 0 0 0 0 0 0 0 0 0
0 0 0 0 0 0 0 0 0 0 0 0 0 0 0 0 0 0 0 0 0 0 0 0 0 0 0 0 0 0 0 0 0 0 0 0 0 0 0 0 0 0 0
0 0 0 0 0 0 0 0 0 0 0 0 0 0 0 0 0 0 0 0 0 0 0 0 0 0 0 0 0 0 0 0 0 0 0 0 0 0 0 0 0 0 0
0 0 0 0 0 0 0 0 0 0 0 0 0 0 0 0 0 0 0 0 0 0 0 0 0 0 0 0 0 0 0 0 0 0 0 0 0 0 0 0 0 0 0
Wind_Speed
10 9 9 10 9 9 10 11 11 10 8 6 7 7 7 6 5 6 7 8 8 8 8 6 6 6 6 6 6 5 5 5 2 2 4 5 5 6 6 4 4 5 5
7 7 8 8 9 10 10 11 11 10 9 9 7 5 4 4 5 4 6 8 8 8 8 8 7 7 6 7 7 6 4 3 4 3 2 4 4 3 4 3 4 4 3
11 9 8 9 9 9 10 10 11 10 10 9 5 3 3 2 3 5 6 7 8 8 8 8 7 7 7 7 7 7 7 5 4 4 4 3 4 3 3 2 2 2 2
10 9 8 8 9 10 8 8 8 8 8 8 7 8 7 8 8 6 5 5 6 7 7 7 7 7 6 7 6 6 6 6 5 4 5 5 3 2 3 3 2 2 3
10 10 9 9 8 8 7 7 6 6 6 7 9 9 7 7 4 3 4 5 5 5 6 6 6 7 6 6 6 5 6 6 6 5 3 5 5 5 5 5 3 2 2
9 8 7 6 6 6 6 6 6 6 6 7 7 8 8 7 5 5 5 5 4 4 5 5 5 6 5 6 6 6 6 6 6 5 4 3 3 4 5 6 5 4 3
8 8 7 6 6 6 6 6 7 6 6 6 7 7 8 7 7 6 5 4 3 4 5 5 5 5 5 5 5 5 5 6 5 5 4 4 4 2 3 4 4 4 3
7 7 7 6 6 6 6 6 6 6 5 6 6 6 6 5 4 5 4 4 4 4 3 4 4 4 4 4 4 4 4 3 4 4 4 3 3 3 3 3 3 4 3
5 5 5 5 6 6 6 6 6 5 4 5 5 4 4 4 4 4 4 3 3 2 3 3 4 3 3 3 3 2 2 2 3 3 3 3 2 2 2 2 2 3 5
3 3 3 4 4 4 4 4 4 4 3 3 3 3 3 3 3 3 3 3 2 2 2 2 3 3 2 2 3 2 2 2 2 1 1 1 1 1 1 1 1 2 3
2 2 2 2 3 3 4 4 4 3 3 2 3 3 2 2 2 2 2 2 2 2 2 2 2 2 2 2 2 3 2 2 1 1 1 1 0 1 1 1 1 1 2
2 2 3 3 3 3 3 3 3 3 3 3 3 3 2 2 2 2 2 2 2 2 2 2 2 2 2 2 2 3 2 2 2 1 1 1 1 1 1 1 1 1 1
1 1 1 2 2 2 2 3 3 3 2 3 3 3 2 2 2 2 2 2 2 2 2 2 2 2 2 2 2 2 2 2 2 1 1 1 1 1 1 1 1 1 1
2 2 2 2 2 2 2 2 2 3 3 3 4 3 3 3 2 2 3 2 3 2 2 2 2 2 2 2 2 2 2 2 1 1 1 0 0 1 1 0 1 1 1
2 3 3 2 2 2 2 2 2 2 3 4 4 3 3 3 3 3 3 3 3 3 2 3 3 2 2 2 3 2 3 2 2 2 2 2 2 2 2 1 1 1 1
5 4 2 2 2 3 3 3 3 3 4 4 3 3 3 3 4 3 3 4 4 3 3 3 3 3 2 4 5 4 3 3 3 2 2 3 2 3 4 4 3 2 1
6 5 4 3 3 2 2 3 3 3 4 4 3 3 3 3 3 3 4 3 3 3 3 3 3 3 4 6 6 5 4 3 2 2 2 2 2 2 2 4 4 4 4
5 4 3 3 2 2 2 2 3 3 4 4 3 3 3 3 3 3 3 3 3 3 3 3 3 3 4 6 7 6 4 4 3 3 2 2 2 2 2 2 3 3 3
4 3 3 2 2 3 3 4 4 3 3 3 2 2 3 3 3 3 3 3 3 3 3 3 3 3 3 6 6 6 3 3 4 3 3 2 2 3 4 3 2 3 3
2 2 2 3 3 3 4 4 3 3 2 2 2 2 2 3 3 3 3 3 3 3 3 4 3 3 3 5 5 5 3 3 3 2 2 2 3 4 4 3 2 2 2
2 3 3 3 3 3 4 4 3 2 2 2 2 2 2 3 3 3 3 4 4 4 3 4 3 3 2 4 4 4 2 2 2 2 1 1 4 4 5 4 2 2 2
2 3 3 2 2 3 4 4 3 2 3 3 3 2 2 2 3 4 4 4 4 4 3 3 3 2 2 3 3 4 3 3 2 1 1 2 4 5 5 4 4 5 4
2 3 3 3 2 2 3 4 2 3 3 4 3 2 2 2 2 4 4 4 3 3 3 3 2 2 2 2 3 3 4 4 3 2 3 4 5 5 4 6 6 4 3
3 3 3 3 2 2 2 2 2 3 4 4 4 3 3 2 2 2 3 3 3 3 3 3 2 2 1 1 1 1 2 4 4 3 3 5 6 5 5 4 4 3 3
2 3 3 4 3 2 2 2 2 3 4 4 4 3 3 2 2 2 2 2 2 3 4 3 3 3 2 1 3 2 2 2 3 4 2 2 2 2 2 3 3 2 3
2 3 3 3 2 2 2 2 2 3 4 4 3 3 3 2 2 2 2 4 4 5 5 4 4 2 3 4 4 5 5 6 7 5 2 2 1 1 1 1 2 2 2
Wind_Direction
232 223 214 207 200 196 194 195 195 197 189 188 193 199 209 208 208 210 208 208 210 208 209 213 211 209 216 220 216 218 226 233 217 248 281 276 261 256 255 252 253 259 260
238 227 217 206 199 197 196 196 197 195 193 198 196 193 190 201 209 207 210 211 211 211 212 214 214 212 217 220 219 215 217 221 193 199 248 297 308 289 265 253 249 256 260
224 224 217 208 200 200 199 197 198 196 198 195 175 160 158 174 199 212 217 216 212 211 212 215 214 213 214 224 222 217 217 226 214 200 198 231 258 301 301 283 264 262 263
221 216 210 206 201 204 199 195 194 193 194 184 179 184 194 207 214 211 211 207 207 211 211 212 212 213 215 223 223 218 219 218 223 215 218 223 212 248 297 302 294 286 268
218 216 210 200 198 197 190 188 182 185 186 182 186 189 202 215 214 197 202 208 209 212 213 213 213 216 218 221 218 215 217 218 222 215 207 224 233 229 246 275 289 300 276
220 215 205 190 192 190 182 179 173 182 183 181 185 190 200 205 198 202 207 213 213 215 220 217 215 218 220 220 220 217 217 221 222 223 215 204 215 224 232 253 269 274 274
209 203 199 194 190 183 182 179 176 184 185 181 188 194 200 200 203 206 207 207 210 217 225 218 221 223 224 223 218 216 221 220 219 222 225 223 229 224 227 244 262 269 272
205 200 199 191 185 180 177 175 177 183 183 183 191 195 198 198 204 206 203 204 211 216 213 209 217 223 222 220 218 222 226 222 221 225 224 229 235 232 229 231 250 273 274
205 200 198 191 184 178 177 176 173 173 178 182 183 187 193 194 195 197 199 201 205 201 195 198 204 212 213 210 204 213 220 216 222 226 227 235 249 250 250 251 241 251 271
206 195 187 181 175 168 163 156 160 167 170 172 177 174 183 187 188 181 184 190 193 191 181 185 191 195 198 196 191 196 203 190 208 207 207 232 264 280 289 274 276 256 256
196 182 168 150 134 127 134 139 140 139 140 150 159 157 164 170 171 169 172 177 168 158 163 174 176 179 184 187 184 186 172 181 195 203 200 235 247 255 274 273 277 274 261
184 183 170 147 138 135 130 126 125 127 136 134 127 128 125 121 125 131 133 129 132 133 147 149 146 146 157 167 173 178 177 181 185 192 179 244 266 259 276 273 274 279 275
112 120 145 156 157 149 138 129 126 126 121 120 122 119 116 113 116 116 106 103 106 100 97 106 118 125 131 130 144 156 156 164 175 177 173 222 225 263 283 286 287 294 311
186 186 198 198 181 161 149 138 131 128 125 119 121 121 121 121 118 106 96 96 99 97 93 96 102 106 107 107 113 115 114 113 100 87 89 60 270 269 274 304 307 310 326
239 223 217 208 188 169 159 149 141 131 123 118 116 118 112 104 100 94 89 87 84 85 90 93 90 85 93 101 110 115 115 114 99 79 67 58 52 45 43 48 0 345 333
245 242 225 200 200 192 175 159 153 141 126 125 126 118 109 103 98 93 92 90 88 86 85 85 91 85 81 97 106 112 112 110 107 96 77 66 66 57 56 54 47 39 9
234 227 219 207 199 199 176 165 151 126 121 119 112 107 108 106 102 102 99 99 97 92 85 80 83 85 90 96 99 104 112 107 99 95 87 64 49 63 68 62 54 37 28
237 227 209 200 181 139 117 113 106 113 117 114 112 113 114 113 109 108 107 104 100 99 96 88 87 89 91 95 95 99 100 97 90 86 86 83 57 48 62 69 58 42 30
221 208 190 179 146 128 121 118 119 122 124 125 130 134 133 131 127 123 117 111 106 100 98 94 88 89 86 91 96 101 102 98 89 81 78 87 76 61 70 74 61 32 13
178 155 132 120 124 120 117 117 128 130 138 138 139 129 132 135 134 127 115 108 112 110 103 91 82 86 84 88 91 98 104 104 94 80 70 72 70 67 71 74 80 48 2
141 127 122 123 128 122 120 123 124 134 115 97 102 107 119 127 128 115 109 112 111 109 104 97 78 70 73 88 89 93 101 118 115 101 68 57 70 75 72 69 54 45 32
133 132 132 127 111 122 131 130 135 111 98 105 107 107 111 123 126 124 118 118 122 120 112 103 87 63 57 72 91 100 102 105 118 117 81 69 77 75 70 61 51 52 53
174 145 140 132 109 106 130 141 134 114 118 117 118 117 112 112 129 136 134 131 134 139 135 131 123 89 63 73 96 105 105 99 100 100 97 86 80 74 63 51 50 46 40
172 155 148 152 152 113 101 120 125 126 133 134 131 129 126 122 118 128 135 144 151 149 146 150 148 135 113 108 106 105 103 103 100 92 86 87 82 71 59 46 40 33 28
165 163 170 169 162 129 113 109 115 126 135 136 134 132 132 137 126 114 126 140 139 157 161 167 160 156 170 180 145 134 121 128 123 111 86 68 62 46 33 27 22 18 18
155 154 160 160 153 139 132 123 127 139 145 143 141 140 143 140 133 123 105 107 115 114 119 122 123 117 105 106 121 122 117 118 123 109 110 99 77 58 26 10 356 359 1